Location: Aciu?a
(46.2833°N, 22.4500°E)
Time: 05:31:38
(UTC+00:00)

Cosmos 614 Rocket - Pass Details

Date: 25 October 2021
Orbit: 733 x 763 km, 74.1° (Epoch: 04 December)

Event Time Altitude Azimuth Distance (km) Brightness Sun altitude
Rises 16:15:44 0° 343° (NNW) 3,173 7.3 -9.1°
Reaches altitude 10° 16:18:12 10° 350° (N) 2,249 6.5 -9.6°
Maximum altitude 16:23:01 42° 61° (ENE) 1,054 4.3 -10.4°
Drops below altitude 10° 16:27:50 10° 132° (SE) 2,249 6.0 -11.2°
Sets 16:30:19 0° 140° (SE) 3,173 6.9 -11.6°
